Home   Weather   Kerpen   Past weeks

Flag for Germany Past Weather in Kerpen, North Rhine-Westphalia, Germany — Yesterday and Last 2 Weeks

Now
66 °F

Partly cloudy.


Feels Like: 66 °F
Forecast: 57 / 72 °F
Wind: 8 mph from West

Location: Noervenich

Current Time: Jul 27, 2017 at 2:51:04 am

Latest Report: Jul 27, 2017 at 1:20 am


Visibility: N/A

Pressure: 29.80 "Hg

Humidity: 73%

Dew Point: 57 °F

Location of KerpenLocation

Past Weather in Kerpen — Graph

°F

Kerpen Temperature Yesterday

Maximum temperature yesterday: 72 °F (at 4:20 pm)
Minimum temperature yesterday: 59 °F (at 12:20 am)
Average temperature yesterday: 64 °F

High & Low Weather Summary for the Past Weeks

 TemperatureHumidityPressure
High91 °F (Jul 19, 1:20 pm)100% (Jul 24, 7:20 am)30.24 "Hg (Jul 24, 7:20 am)
Low48 °F (Jul 13, 5:20 am)32% (Jul 19, 1:20 pm)29.74 "Hg (Jul 12, 9:03 am)
Average65 °F72%29.96 "Hg
* Reported Jul 12 1:20 am — Jul 27 1:20 am, Kerpen. Weather by CustomWeather, © 2017

Note: Actual official high and low records may vary slightly from our data, if they occured in-between our weather recording intervals... More about our weather records

Advertising

Kerpen Weather History for the Previous 24 Hours

Scroll right to see more
 ConditionsComfort  
Time TempWeatherWind HumidityBarometerVisibility
1:20 am
Thu, Jul 27
66 °FPartly cloudy.8 mph73%29.80 "HgN/A
12:20 am68 °FPassing clouds.10 mph64%29.80 "HgN/A
11:20 pm
Wed, Jul 26
68 °FPassing clouds.7 mph64%29.80 "HgN/A
10:20 pm68 °FPassing clouds.3 mph64%29.80 "HgN/A
9:20 pm70 °FPartly sunny.2 mph64%29.80 "HgN/A
8:20 pm72 °FPartly sunny.2 mph57%29.80 "HgN/A
7:20 pm72 °FPartly sunny.7 mph53%29.80 "HgN/A
6:20 pm72 °FBroken clouds.8 mph50%29.80 "HgN/A
5:20 pm72 °FPartly sunny.8 mph50%29.80 "HgN/A
4:20 pm72 °FPartly sunny.12 mph50%29.83 "HgN/A
3:20 pm70 °FPartly sunny.12 mph53%29.83 "HgN/A
2:20 pm68 °FPartly sunny.6 mph64%29.83 "HgN/A
1:20 pm64 °FBroken clouds.9 mph78%29.83 "HgN/A
12:20 pm63 °FSprinkles. Broken clouds.13 mph83%29.86 "HgN/A
11:20 am64 °FScattered clouds.9 mph78%29.83 "HgN/A
10:20 am64 °FScattered clouds.9 mph78%29.83 "HgN/A
9:20 am61 °FBroken clouds.9 mph88%29.83 "HgN/A
8:20 am61 °FBroken clouds.8 mph88%29.83 "HgN/A
7:20 am59 °FBroken clouds.8 mph94%29.83 "HgN/A
6:42 am59 °FBroken clouds.10 mph88%29.80 "HgN/A
6:20 am59 °FBroken clouds.13 mph94%29.80 "Hg5 mi
5:47 am59 °FPartly cloudy.13 mph94%29.80 "Hg5 mi
5:20 am59 °FMostly cloudy.12 mph94%29.80 "Hg5 mi
4:50 am59 °FMostly cloudy.10 mph94%29.80 "Hg6 mi
4:29 am59 °FRain. Fog.10 mph94%29.80 "Hg3 mi
3:49 am59 °FMostly cloudy.10 mph94%29.80 "HgN/A
3:20 am59 °FMostly cloudy.10 mph94%29.80 "HgN/A
2:20 am59 °FMostly cloudy.12 mph94%29.80 "HgN/A
Weather by CustomWeather, © 2017

See weather overviewHow to use our weather pages